Total_Precipitation_Accumulation
0.00 0.00 0.01 0.02 0.03 0.02 0.03 0.09 0.11 0.12 0.12 0.16 0.23 0.27 0.43 0.50 0.58 0.63 0.62 0.77 0.86 0.89 1.18 1.43 1.88 2.60 2.90 3.39 3.32 2.97 2.76 2.70 2.66 2.65 2.69 2.70 2.89 3.08 3.22 3.28 3.13 3.06 2.98 2.97
0.00 0.00 0.00 0.01 0.03 0.02 0.04 0.07 0.09 0.11 0.13 0.17 0.26 0.34 0.49 0.61 0.68 0.69 0.69 0.81 0.82 0.87 1.26 1.66 2.05 2.43 2.65 2.78 2.87 3.08 3.09 3.01 2.89 2.94 3.23 3.65 3.90 3.93 4.01 3.96 3.89 3.75 3.64 3.58
0.01 0.00 0.00 0.01 0.02 0.02 0.03 0.04 0.06 0.11 0.16 0.21 0.31 0.49 0.56 0.66 0.79 0.73 0.65 0.72 0.80 0.96 1.21 1.51 1.88 2.14 2.46 2.80 2.90 3.12 3.22 3.35 3.51 3.72 3.94 4.41 4.72 4.70 4.54 4.17 3.99 3.80 3.54 3.40
0.00 0.00 0.00 0.00 0.01 0.01 0.02 0.02 0.06 0.08 0.12 0.22 0.27 0.53 0.70 0.78 0.81 0.80 0.76 0.77 0.89 1.05 1.24 1.38 1.54 1.72 1.99 2.32 2.61 2.88 3.09 3.37 3.79 4.38 4.69 4.81 4.98 4.91 4.75 4.41 4.04 3.67 3.36 3.13
0.00 0.00 0.00 0.01 0.01 0.02 0.02 0.02 0.04 0.06 0.07 0.20 0.26 0.42 0.83 0.94 0.85 0.85 0.87 0.92 1.07 1.07 1.18 1.25 1.21 1.33 1.64 1.92 2.15 2.51 2.86 3.25 3.82 4.30 4.74 4.98 4.97 4.75 4.56 4.14 3.74 3.41 3.14 2.87
0.01 0.01 0.01 0.01 0.02 0.01 0.02 0.03 0.05 0.07 0.10 0.23 0.23 0.35 0.78 1.03 0.98 0.84 0.79 0.92 1.08 1.04 0.98 1.00 1.03 1.11 1.33 1.55 1.80 2.07 2.48 3.06 3.49 3.90 4.32 4.47 4.51 4.42 4.20 3.78 3.45 3.17 2.94 2.69
0.03 0.03 0.02 0.02 0.03 0.02 0.03 0.05 0.15 0.23 0.26 0.29 0.21 0.38 0.83 1.05 1.08 0.99 0.98 1.08 1.05 0.93 0.86 0.93 0.93 1.05 1.28 1.49 1.78 2.03 2.37 2.78 3.01 3.13 3.35 3.59 3.64 3.61 3.58 3.42 3.15 2.85 2.56 2.23
0.09 0.07 0.03 0.02 0.02 0.03 0.03 0.05 0.21 0.37 0.35 0.32 0.34 0.67 1.09 1.14 1.13 1.07 1.00 0.97 0.92 0.92 0.95 0.98 1.05 1.16 1.40 1.54 1.62 1.76 1.95 2.25 2.38 2.36 2.53 2.74 2.85 2.84 2.81 2.67 2.43 2.16 1.94 1.74
0.11 0.11 0.04 0.02 0.02 0.03 0.03 0.03 0.07 0.13 0.17 0.33 0.61 1.01 1.30 1.32 1.32 1.33 1.22 1.07 0.94 0.90 0.98 1.03 1.07 1.17 1.39 1.49 1.54 1.49 1.46 1.58 1.67 1.74 1.82 1.86 1.91 1.94 1.92 1.83 1.70 1.59 1.44 1.28
0.07 0.09 0.05 0.03 0.03 0.03 0.03 0.04 0.06 0.11 0.28 0.46 0.67 1.13 1.66 1.68 1.51 1.45 1.36 1.16 1.03 0.96 0.98 1.03 1.03 1.05 1.10 1.16 1.26 1.24 1.11 1.16 1.21 1.20 1.18 1.22 1.31 1.40 1.37 1.24 1.18 1.15 1.09 1.00
0.05 0.07 0.06 0.05 0.04 0.05 0.05 0.05 0.06 0.11 0.18 0.36 0.66 1.18 1.45 1.62 1.53 1.40 1.33 1.21 1.01 0.97 0.96 0.94 0.93 0.88 0.82 0.82 0.88 0.96 0.93 0.91 0.90 0.91 0.93 0.92 0.93 0.97 1.00 0.97 0.90 0.85 0.80 0.77
0.06 0.09 0.12 0.11 0.08 0.06 0.06 0.07 0.07 0.15 0.20 0.26 0.54 1.15 1.23 1.46 1.61 1.62 1.43 1.25 1.17 1.05 0.99 0.96 0.95 0.90 0.84 0.79 0.80 0.81 0.82 0.83 0.80 0.75 0.79 0.80 0.77 0.74 0.75 0.79 0.79 0.73 0.71 0.70
0.07 0.15 0.31 0.37 0.26 0.14 0.10 0.09 0.10 0.12 0.21 0.30 0.55 1.18 1.28 1.42 1.63 1.65 1.46 1.35 1.31 1.26 1.20 1.12 1.05 0.99 0.91 0.83 0.78 0.73 0.74 0.77 0.74 0.68 0.68 0.67 0.66 0.63 0.62 0.64 0.64 0.62 0.62 0.62
0.08 0.18 0.39 0.66 0.55 0.26 0.16 0.14 0.16 0.18 0.30 0.37 0.57 1.01 1.26 1.42 1.59 1.67 1.59 1.40 1.35 1.38 1.33 1.20 1.11 1.02 0.93 0.88 0.84 0.82 0.78 0.73 0.67 0.63 0.63 0.62 0.64 0.62 0.58 0.55 0.53 0.53 0.54 0.56
0.11 0.22 0.25 0.29 0.29 0.24 0.19 0.18 0.18 0.22 0.27 0.46 0.69 1.01 1.35 1.46 1.63 1.78 1.81 1.67 1.50 1.45 1.38 1.26 1.22 1.16 1.04 1.00 0.97 0.93 0.84 0.76 0.68 0.64 0.63 0.66 0.70 0.69 0.66 0.64 0.62 0.60 0.57 0.52
0.12 0.20 0.24 0.27 0.26 0.28 0.25 0.22 0.20 0.26 0.33 0.49 0.75 1.14 1.42 1.54 1.61 1.71 1.79 1.70 1.60 1.58 1.55 1.57 1.60 1.53 1.36 1.22 1.14 1.03 0.91 0.84 0.77 0.76 0.75 0.74 0.74 0.70 0.68 0.65 0.64 0.64 0.61 0.56
0.12 0.20 0.30 0.32 0.23 0.35 0.52 0.40 0.35 0.40 0.46 0.61 0.87 1.09 1.22 1.38 1.57 1.59 1.61 1.72 1.72 1.78 1.86 1.88 1.82 1.70 1.52 1.40 1.35 1.25 1.11 1.00 0.95 0.92 0.85 0.78 0.72 0.68 0.65 0.58 0.61 0.64 0.61 0.55
0.15 0.27 0.35 0.41 0.44 0.72 0.68 0.41 0.41 0.56 0.66 0.68 0.75 0.82 1.01 1.26 1.41 1.42 1.50 1.70 1.79 1.77 1.77 1.76 1.67 1.58 1.49 1.44 1.37 1.23 1.10 1.04 0.97 0.91 0.83 0.72 0.64 0.64 0.64 0.64 0.64 0.61 0.57 0.53
0.12 0.28 0.44 0.53 0.72 0.79 0.78 0.50 0.46 0.67 0.86 0.69 0.75 0.78 0.91 1.03 1.20 1.45 1.53 1.66 1.82 1.71 1.65 1.68 1.67 1.59 1.54 1.48 1.36 1.24 1.13 1.00 0.95 0.88 0.74 0.62 0.56 0.56 0.57 0.58 0.56 0.54 0.54 0.52
0.14 0.25 0.51 0.67 0.85 0.98 0.89 0.48 0.38 0.67 1.20 0.88 0.86 0.88 0.89 0.98 1.28 1.42 1.38 1.35 1.41 1.45 1.51 1.64 1.73 1.76 1.68 1.55 1.32 1.21 1.09 0.93 0.81 0.68 0.58 0.53 0.51 0.48 0.45 0.44 0.47 0.48 0.49 0.46
0.38 0.42 0.56 0.79 1.06 1.12 0.58 0.31 0.45 0.98 1.19 0.99 0.93 0.94 0.93 1.05 1.14 1.04 1.03 1.14 1.25 1.39 1.51 1.62 1.64 1.61 1.56 1.46 1.26 1.16 1.03 0.86 0.68 0.55 0.50 0.50 0.44 0.36 0.32 0.36 0.42 0.43 0.39 0.38
0.58 0.70 0.77 0.88 1.13 1.22 0.53 0.37 0.61 0.76 0.66 0.65 0.68 0.72 0.75 0.82 0.86 0.92 0.96 1.03 1.09 1.24 1.38 1.46 1.41 1.34 1.24 1.15 1.08 1.03 0.91 0.69 0.53 0.48 0.47 0.45 0.38 0.24 0.22 0.31 0.35 0.34 0.36 0.35
0.57 0.66 0.82 1.00 1.15 0.82 0.46 0.43 0.43 0.48 0.50 0.49 0.55 0.57 0.61 0.66 0.76 0.90 1.03 1.08 1.08 1.06 1.12 1.14 1.05 0.97 0.96 0.91 0.88 0.84 0.70 0.53 0.46 0.44 0.45 0.40 0.34 0.28 0.22 0.26 0.29 0.29 0.30 0.27
0.73 0.55 0.67 0.87 0.91 0.65 0.45 0.37 0.36 0.36 0.37 0.40 0.50 0.54 0.53 0.54 0.58 0.69 0.78 0.87 0.91 0.89 0.87 0.84 0.79 0.74 0.73 0.71 0.68 0.62 0.51 0.45 0.46 0.47 0.43 0.40 0.39 0.33 0.25 0.22 0.18 0.19 0.23 0.24
0.70 0.71 0.83 0.95 0.92 0.72 0.58 0.43 0.36 0.35 0.35 0.41 0.47 0.46 0.44 0.40 0.42 0.49 0.59 0.63 0.66 0.63 0.60 0.60 0.61 0.58 0.54 0.51 0.51 0.48 0.41 0.38 0.43 0.40 0.33 0.30 0.27 0.27 0.27 0.21 0.12 0.10 0.12 0.11
0.55 0.66 0.89 1.03 0.84 0.72 0.64 0.51 0.41 0.38 0.36 0.36 0.33 0.33 0.37 0.37 0.38 0.42 0.50 0.54 0.53 0.48 0.47 0.51 0.53 0.51 0.49 0.47 0.44 0.39 0.31 0.30 0.36 0.33 0.27 0.22 0.18 0.17 0.17 0.22 0.16 0.07 0.04 0.04